Simultaneous Nadir Overpasses (SNOs) Predictions

Prediction of SNOs between NOAA-21 and AQUA Satellite Orbit:

Table of predicted SNOs for the next 14.0 days since TLE Epoch: 12/17/2022
Index Date (NOAA-21) Time (NOAA-21) Lat,Lon (NOAA-21) SZA (NOAA-21 ) Date (AQUA) Time (AQUA) Lat,Lon (AQUA) SZA (AQUA ) Distance(km) Time Diff (sec)
1 12/18/2022 03:41:44 79.67, 22.58 114.98 12/18/2022 03:42:28 79.67, 22.61 114.94 0.60 44
2 12/18/2022 04:32:14 -79.90,-167.92 65.43 12/18/2022 04:31:48 -79.91,-167.92 65.41 0.22 26
3 12/20/2022 23:15:08 79.73, 89.75 114.99 12/20/2022 23:15:33 79.73, 89.79 114.96 0.78 25
4 12/21/2022 00:05:41 -79.89,-101.43 65.29 12/21/2022 00:04:55 -79.89,-101.28 65.28 3.03 46
5 12/23/2022 18:48:28 79.87, 157.69 114.80 12/23/2022 18:48:34 79.86, 157.59 114.82 2.09 6
6 12/23/2022 19:39:03 -79.98, -33.87 65.40 12/23/2022 19:37:57 -79.99, -33.73 65.38 2.72 66
7 12/26/2022 13:31:18 -79.70, 55.43 64.92 12/26/2022 13:32:19 -79.69, 55.37 64.95 1.22 61
8 12/26/2022 14:21:51 79.93,-135.04 114.68 12/26/2022 14:21:37 79.93,-135.12 114.70 1.59 14
9 12/29/2022 09:04:41 -79.78, 122.78 65.12 12/29/2022 09:05:21 -79.77, 122.70 65.14 1.62 40



Historial Predications of SNOs between NOAA-21 and AQUA
